TimeCST,TemperatureF,Dew PointF,Humidity,Sea Level PressureIn,VisibilityMPH,Wind Direction,Wind SpeedMPH,Gust SpeedMPH,PrecipitationIn,Events,Conditions,WindDirDegrees,DateUTC
12:04 AM,33.8,33.8,100,30.05,10.0,WNW,5.8,-,N/A,Snow,Light Snow,300,2013-03-01 06:04:00
12:32 AM,33.8,33.8,100,30.05,10.0,NW,6.9,-,N/A,,Overcast,310,2013-03-01 06:32:00
12:58 AM,33.8,33.8,100,30.05,10.0,WNW,6.9,-,N/A,,Overcast,300,2013-03-01 06:58:00
1:19 AM,33.8,33.8,100,30.05,10.0,WNW,6.9,-,N/A,Snow,Light Snow,300,2013-03-01 07:19:00
1:23 AM,33.8,33.8,100,30.05,10.0,NW,5.8,-,N/A,Snow,Light Snow,310,2013-03-01 07:23:00
1:39 AM,33.8,33.8,100,30.04,7.0,WNW,8.1,-,N/A,Snow,Light Snow,290,2013-03-01 07:39:00
1:55 AM,33.1,32.9,99,30.04,4.0,WNW,8.1,-,0.00,Snow,Light Snow,300,2013-03-01 07:55:00
2:09 AM,32.0,32.0,100,30.04,3.0,WNW,6.9,-,N/A,Snow,Light Snow,300,2013-03-01 08:09:00
2:15 AM,32.0,32.0,100,30.04,2.5,WNW,5.8,-,N/A,Snow,Light Snow,300,2013-03-01 08:15:00
2:22 AM,32.0,32.0,100,30.04,3.0,WNW,6.9,-,N/A,Snow,Light Snow,290,2013-03-01 08:22:00
2:31 AM,32.0,32.0,100,30.04,3.0,WNW,6.9,-,N/A,Snow,Light Snow,290,2013-03-01 08:31:00
2:35 AM,32.0,32.0,100,30.04,3.0,WNW,8.1,-,N/A,Snow,Light Snow,300,2013-03-01 08:35:00
2:55 AM,32.5,32.5,100,30.04,4.0,WNW,5.8,-,0.00,Snow,Light Snow,290,2013-03-01 08:55:00
3:05 AM,32.0,32.0,100,30.05,5.0,WNW,6.9,-,N/A,Snow,Light Snow,290,2013-03-01 09:05:00
3:40 AM,32.0,32.0,100,30.05,5.0,WNW,5.8,-,N/A,Snow,Light Snow,290,2013-03-01 09:40:00
3:55 AM,32.4,32.4,100,30.04,4.0,WNW,5.8,-,0.00,Snow,Light Snow,290,2013-03-01 09:55:00
3:58 AM,32.0,32.0,100,30.04,4.0,West,5.8,-,N/A,Snow,Light Snow,280,2013-03-01 09:58:00
4:24 AM,32.0,32.0,100,30.04,4.0,West,5.8,-,N/A,Snow,Light Snow,280,2013-03-01 10:24:00
4:27 AM,32.0,32.0,100,30.04,5.0,WNW,5.8,-,N/A,Snow,Light Snow,290,2013-03-01 10:27:00
4:38 AM,32.0,32.0,100,30.04,5.0,WNW,5.8,-,N/A,Snow,Light Snow,290,2013-03-01 10:38:00
4:48 AM,32.0,32.0,100,30.04,5.0,WNW,5.8,-,N/A,Snow,Light Snow,290,2013-03-01 10:48:00
4:55 AM,32.4,32.4,100,30.04,6.0,WNW,5.8,-,0.01,Snow,Light Snow,290,2013-03-01 10:55:00
4:59 AM,32.0,32.0,100,30.04,6.0,WNW,6.9,-,N/A,Snow,Light Snow,290,2013-03-01 10:59:00
5:14 AM,32.0,32.0,100,30.04,6.0,West,5.8,-,N/A,Snow,Light Snow,280,2013-03-01 11:14:00
5:20 AM,32.0,32.0,100,30.04,6.0,WNW,5.8,-,N/A,Snow,Light Snow,290,2013-03-01 11:20:00
5:28 AM,32.0,32.0,100,30.04,6.0,West,5.8,-,N/A,Snow,Light Snow,280,2013-03-01 11:28:00
5:46 AM,32.0,32.0,100,30.05,6.0,West,5.8,-,N/A,Snow,Light Snow,280,2013-03-01 11:46:00
5:48 AM,32.0,32.0,100,30.05,6.0,WNW,5.8,-,N/A,Snow,Light Snow,290,2013-03-01 11:48:00
5:55 AM,32.4,32.4,100,30.05,7.0,WNW,5.8,-,0.00,Snow,Light Snow,290,2013-03-01 11:55:00
6:03 AM,32.0,32.0,100,30.05,8.0,WNW,5.8,-,N/A,Snow,Light Snow,300,2013-03-01 12:03:00
6:14 AM,32.0,32.0,100,30.05,10.0,NW,5.8,-,N/A,,Overcast,310,2013-03-01 12:14:00
6:42 AM,32.0,32.0,100,30.05,10.0,WNW,5.8,-,N/A,,Overcast,300,2013-03-01 12:42:00
6:44 AM,32.0,32.0,100,30.05,9.0,WNW,6.9,-,N/A,Snow,Light Snow,300,2013-03-01 12:44:00
6:55 AM,32.4,32.2,99,30.06,9.0,WNW,6.9,-,0.00,Snow,Light Snow,300,2013-03-01 12:55:00
7:12 AM,32.0,32.0,100,30.06,8.0,WNW,5.8,-,N/A,Snow,Light Snow,300,2013-03-01 13:12:00
7:36 AM,32.0,32.0,100,30.07,4.0,WNW,5.8,-,N/A,Snow,Light Snow,290,2013-03-01 13:36:00
7:39 AM,32.0,32.0,100,30.07,4.0,WNW,4.6,-,N/A,Snow,Light Snow,290,2013-03-01 13:39:00
7:42 AM,32.0,32.0,100,30.07,4.0,WNW,6.9,-,N/A,Snow,Light Snow,290,2013-03-01 13:42:00
7:55 AM,32.7,32.7,100,30.07,4.0,West,5.8,-,0.00,Snow,Light Snow,280,2013-03-01 13:55:00
7:59 AM,33.8,33.8,100,30.07,4.0,WNW,6.9,-,N/A,Snow,Light Snow,290,2013-03-01 13:59:00
8:06 AM,33.8,33.8,100,30.08,4.0,WNW,6.9,-,N/A,Snow,Light Snow,290,2013-03-01 14:06:00
8:41 AM,33.8,33.8,100,30.08,5.0,WNW,8.1,-,N/A,Snow,Light Snow,290,2013-03-01 14:41:00
8:49 AM,33.8,33.8,100,30.08,6.0,WNW,6.9,-,N/A,Snow,Light Snow,290,2013-03-01 14:49:00
8:55 AM,33.6,33.6,100,30.08,6.0,WNW,6.9,-,0.00,Snow,Light Snow,300,2013-03-01 14:55:00
9:10 AM,33.8,33.8,100,30.08,8.0,NW,8.1,-,N/A,Snow,Light Snow,310,2013-03-01 15:10:00
9:12 AM,33.8,33.8,100,30.08,7.0,WNW,6.9,-,N/A,Snow,Light Snow,290,2013-03-01 15:12:00
9:30 AM,33.8,33.8,100,30.08,6.0,WNW,4.6,-,N/A,Snow,Light Snow,300,2013-03-01 15:30:00
9:41 AM,33.8,33.8,100,30.08,9.0,NW,9.2,-,N/A,Snow,Light Snow,310,2013-03-01 15:41:00
9:55 AM,34.3,34.2,99,30.08,8.0,NW,8.1,-,0.00,Snow,Light Snow,310,2013-03-01 15:55:00
10:16 AM,33.8,33.8,100,30.08,8.0,NW,8.1,-,N/A,Snow,Light Snow,310,2013-03-01 16:16:00
10:19 AM,35.6,33.8,93,30.08,9.0,NW,6.9,-,N/A,Snow,Light Snow,310,2013-03-01 16:19:00
10:30 AM,35.6,35.6,100,30.08,10.0,WNW,6.9,-,N/A,,Light Drizzle,300,2013-03-01 16:30:00
10:38 AM,35.6,35.6,100,30.08,10.0,NW,8.1,-,N/A,,Light Drizzle,310,2013-03-01 16:38:00
10:40 AM,35.6,35.6,100,30.08,10.0,NW,6.9,-,N/A,,Light Drizzle,310,2013-03-01 16:40:00
10:53 AM,35.6,35.6,100,30.08,10.0,WNW,8.1,-,N/A,,Overcast,300,2013-03-01 16:53:00
10:54 AM,35.6,35.6,100,30.08,10.0,WNW,6.9,-,N/A,,Light Drizzle,300,2013-03-01 16:54:00
10:55 AM,35.6,35.2,99,30.08,10.0,WNW,6.9,-,0.00,,Light Drizzle,300,2013-03-01 16:55:00
10:57 AM,35.6,35.6,100,30.08,10.0,WNW,6.9,-,N/A,,Light Drizzle,300,2013-03-01 16:57:00
11:04 AM,35.6,35.6,100,30.08,10.0,West,6.9,-,N/A,,Light Drizzle,280,2013-03-01 17:04:00
11:13 AM,35.6,35.6,100,30.08,10.0,NW,6.9,-,N/A,,Overcast,310,2013-03-01 17:13:00
11:15 AM,35.6,35.6,100,30.08,10.0,NW,6.9,-,N/A,,Light Drizzle,310,2013-03-01 17:15:00
11:40 AM,37.4,35.6,93,30.08,10.0,WNW,8.1,-,N/A,,Light Drizzle,290,2013-03-01 17:40:00
11:50 AM,37.4,35.6,93,30.07,10.0,WNW,9.2,-,N/A,,Light Drizzle,290,2013-03-01 17:50:00
11:55 AM,37.6,36.0,94,30.07,10.0,WNW,9.2,-,0.00,,Light Drizzle,300,2013-03-01 17:55:00
11:57 AM,37.4,35.6,93,30.07,8.0,NW,9.2,-,N/A,,Light Drizzle,310,2013-03-01 17:57:00
12:03 PM,35.6,35.6,100,30.07,6.0,WNW,6.9,-,N/A,Snow,Light Snow,300,2013-03-01 18:03:00
12:15 PM,37.4,35.6,93,30.06,10.0,NW,8.1,-,N/A,,Light Drizzle,310,2013-03-01 18:15:00
12:17 PM,37.4,35.6,93,30.06,10.0,NW,8.1,-,N/A,,Overcast,310,2013-03-01 18:17:00
12:29 PM,37.4,35.6,93,30.06,10.0,WNW,11.5,-,N/A,,Light Drizzle,300,2013-03-01 18:29:00
12:30 PM,37.4,35.6,93,30.06,10.0,WNW,11.5,-,N/A,,Overcast,300,2013-03-01 18:30:00
12:31 PM,37.4,35.6,93,30.06,10.0,WNW,11.5,-,N/A,,Light Drizzle,300,2013-03-01 18:31:00
12:50 PM,37.4,35.6,93,30.06,10.0,West,6.9,-,N/A,,Light Drizzle,280,2013-03-01 18:50:00
12:53 PM,37.4,35.6,93,30.05,10.0,West,5.8,-,N/A,,Light Drizzle,280,2013-03-01 18:53:00
12:55 PM,37.0,35.8,95,30.05,10.0,West,6.9,-,0.00,,Light Drizzle,280,2013-03-01 18:55:00
1:01 PM,37.4,35.6,93,30.05,9.0,NNW,5.8,-,N/A,,Light Ice Pellets,330,2013-03-01 19:01:00
1:11 PM,35.6,35.6,100,30.04,3.0,WNW,8.1,-,N/A,Snow,Snow Grains,300,2013-03-01 19:11:00
1:22 PM,37.4,37.4,100,30.04,10.0,West,8.1,-,N/A,,Overcast,270,2013-03-01 19:22:00
1:50 PM,39.2,33.8,81,30.04,10.0,West,6.9,-,N/A,,Overcast,280,2013-03-01 19:50:00
1:55 PM,38.8,34.2,83,30.04,4.0,West,12.7,-,0.01,,Unknown,280,2013-03-01 19:55:00
2:17 PM,37.4,35.6,93,30.04,10.0,WNW,6.9,-,N/A,,Mostly Cloudy,290,2013-03-01 20:17:00
2:36 PM,37.4,35.6,93,30.04,10.0,NNW,10.4,-,N/A,Rain-Snow,Light Rain,330,2013-03-01 20:36:00
3:07 PM,35.6,35.6,100,30.04,4.0,NW,6.9,17.3,N/A,Snow,Light Snow,320,2013-03-01 21:07:00
4:04 PM,35.6,35.6,100,30.05,10.0,Variable,3.5,-,N/A,,Mostly Cloudy,0,2013-03-01 22:04:00
4:26 PM,35.6,33.8,93,30.06,5.0,NW,8.1,17.3,N/A,Snow,Light Snow,320,2013-03-01 22:26:00
5:33 PM,35.6,35.6,100,30.06,4.0,West,6.9,-,N/A,Snow,Light Snow,280,2013-03-01 23:33:00
5:55 PM,33.4,33.4,100,30.07,3.0,NW,6.9,-,0.01,Snow,Light Snow,320,2013-03-01 23:55:00
6:55 PM,33.1,33.1,100,30.08,5.0,North,-9999.0,-,0.01,Snow,Light Snow,0,2013-03-02 00:55:00
7:12 PM,33.1,33.1,100,30.08,5.0,NNW,5.8,-,0.01,Snow,Light Snow,330,2013-03-02 01:12:00
7:55 PM,33.1,33.1,100,30.09,6.0,NNW,5.8,-,0.00,Snow,Light Snow,330,2013-03-02 01:55:00
8:18 PM,33.8,33.8,100,30.09,10.0,NW,4.6,-,N/A,Rain,Light Rain,310,2013-03-02 02:18:00
8:27 PM,33.8,33.8,100,30.09,10.0,NW,4.6,-,N/A,,Light Drizzle,320,2013-03-02 02:27:00
8:29 PM,33.8,33.8,100,30.09,10.0,NW,4.6,-,N/A,,Light Drizzle,310,2013-03-02 02:29:00
8:39 PM,33.8,33.8,100,30.10,9.0,WNW,4.6,-,N/A,Snow,Light Snow,300,2013-03-02 02:39:00
8:55 PM,33.1,33.1,100,30.10,9.0,WNW,5.8,-,0.00,Snow,Light Snow,300,2013-03-02 02:55:00
9:02 PM,33.8,33.8,100,30.10,8.0,NW,6.9,-,N/A,Snow,Light Snow,310,2013-03-02 03:02:00
9:06 PM,33.8,33.8,100,30.10,7.0,NW,6.9,-,N/A,Snow,Light Snow,310,2013-03-02 03:06:00
9:07 PM,33.8,33.8,100,30.10,6.0,NW,6.9,-,N/A,Snow,Light Snow,310,2013-03-02 03:07:00
9:10 PM,33.8,33.8,100,30.10,6.0,NW,5.8,-,N/A,Snow,Light Snow,310,2013-03-02 03:10:00
9:15 PM,33.8,33.8,100,30.10,8.0,WNW,5.8,-,N/A,Snow,Light Snow,300,2013-03-02 03:15:00
9:19 PM,33.8,33.8,100,30.10,10.0,NW,5.8,-,N/A,Snow,Light Snow,310,2013-03-02 03:19:00
9:26 PM,33.8,33.8,100,30.10,10.0,NW,6.9,-,N/A,Snow,Light Snow,310,2013-03-02 03:26:00
9:35 PM,32.0,32.0,100,30.10,9.0,NNW,4.6,-,N/A,Snow,Light Snow,330,2013-03-02 03:35:00
9:38 PM,32.0,32.0,100,30.10,9.0,NW,5.8,-,N/A,Snow,Light Snow,320,2013-03-02 03:38:00
9:45 PM,32.0,32.0,100,30.10,10.0,NW,4.6,-,N/A,Snow,Light Snow,320,2013-03-02 03:45:00
9:51 PM,32.0,32.0,100,30.10,8.0,NW,5.8,-,N/A,Snow,Light Snow,320,2013-03-02 03:51:00
9:53 PM,32.0,32.0,100,30.10,7.0,NW,4.6,-,N/A,Snow,Light Snow,320,2013-03-02 03:53:00
9:54 PM,32.0,32.0,100,30.10,7.0,NNW,4.6,-,N/A,Snow,Light Snow,330,2013-03-02 03:54:00
9:55 PM,32.7,32.7,100,30.10,7.0,NNW,6.9,-,0.01,Snow,Light Snow,340,2013-03-02 03:55:00
10:01 PM,32.0,32.0,100,30.10,7.0,NNW,9.2,-,N/A,Snow,Light Snow,330,2013-03-02 04:01:00
10:08 PM,32.0,32.0,100,30.10,8.0,NNW,6.9,-,N/A,Snow,Light Snow,340,2013-03-02 04:08:00
10:09 PM,32.0,32.0,100,30.10,8.0,NNW,6.9,-,N/A,Snow,Light Snow,340,2013-03-02 04:09:00
10:17 PM,32.0,32.0,100,30.07,10.0,Variable,4.6,-,N/A,Snow,Light Snow,0,2013-03-02 04:17:00
10:19 PM,32.0,32.0,100,30.10,10.0,NW,4.6,-,N/A,Snow,Light Snow,320,2013-03-02 04:19:00
10:22 PM,32.0,32.0,100,30.10,9.0,NW,5.8,-,N/A,Snow,Light Snow,310,2013-03-02 04:22:00
10:28 PM,32.0,32.0,100,30.10,8.0,NW,5.8,-,N/A,Snow,Light Snow,320,2013-03-02 04:28:00
10:33 PM,32.0,32.0,100,30.10,9.0,NW,5.8,-,N/A,Snow,Light Snow,320,2013-03-02 04:33:00
10:37 PM,32.0,32.0,100,30.07,9.0,NW,5.8,-,N/A,Snow,Light Snow,310,2013-03-02 04:37:00
10:38 PM,32.0,32.0,100,30.07,9.0,NW,5.8,-,N/A,Snow,Light Snow,320,2013-03-02 04:38:00
10:39 PM,32.0,32.0,100,30.10,9.0,NW,5.8,-,N/A,Snow,Light Snow,320,2013-03-02 04:39:00
10:40 PM,32.0,32.0,100,30.10,9.0,NW,5.8,-,N/A,Snow,Light Snow,310,2013-03-02 04:40:00
10:53 PM,32.0,32.0,100,30.10,7.0,NW,4.6,-,N/A,Snow,Light Snow,320,2013-03-02 04:53:00
10:54 PM,32.0,32.0,100,30.10,7.0,NW,4.6,-,N/A,Snow,Light Snow,320,2013-03-02 04:54:00
10:55 PM,32.2,32.2,100,30.10,8.0,NW,4.6,-,0.00,Snow,Light Snow,320,2013-03-02 04:55:00
10:59 PM,32.0,32.0,100,30.09,9.0,NW,5.8,-,N/A,Snow,Light Snow,320,2013-03-02 04:59:00
11:04 PM,32.0,32.0,100,30.07,10.0,NW,4.6,-,N/A,Snow,Light Snow,320,2013-03-02 05:04:00
11:11 PM,32.0,32.0,100,30.09,7.0,NW,4.6,-,N/A,Snow,Light Snow,310,2013-03-02 05:11:00
11:19 PM,32.0,32.0,100,30.09,7.0,NNW,5.8,-,N/A,Snow,Light Snow,330,2013-03-02 05:19:00
11:23 PM,32.0,32.0,100,30.09,9.0,NNW,5.8,-,N/A,Snow,Light Snow,330,2013-03-02 05:23:00
11:30 PM,32.0,32.0,100,30.09,10.0,NW,5.8,-,N/A,,Overcast,310,2013-03-02 05:30:00
11:32 PM,32.0,32.0,100,30.09,10.0,NW,4.6,-,N/A,,Overcast,320,2013-03-02 05:32:00
11:33 PM,32.0,32.0,100,30.07,6.0,NW,4.6,-,N/A,Snow,Light Snow,320,2013-03-02 05:33:00
11:36 PM,32.0,32.0,100,30.10,10.0,NW,4.6,-,N/A,,Light Drizzle,310,2013-03-02 05:36:00
11:39 PM,32.0,32.0,100,30.07,6.0,NW,5.8,-,N/A,Snow,Light Snow,310,2013-03-02 05:39:00
11:45 PM,32.0,32.0,100,30.10,10.0,WNW,6.9,-,N/A,,Overcast,300,2013-03-02 05:45:00
11:51 PM,32.0,32.0,100,30.10,10.0,NW,6.9,-,N/A,,Overcast,310,2013-03-02 05:51:00
11:54 PM,32.0,32.0,100,30.10,10.0,NW,5.8,-,N/A,,Overcast,320,2013-03-02 05:54:00
11:55 PM,31.6,31.6,100,30.10,10.0,NW,6.9,-,0.00,,Overcast,320,2013-03-02 05:55:00
11:58 PM,32.0,32.0,100,30.10,10.0,NW,6.9,-,N/A,,Overcast,310,2013-03-02 05:58:00
11:59 PM,32.0,32.0,100,30.07,6.0,NW,8.1,-,N/A,Snow,Light Snow,320,2013-03-02 05:59:00